User: anonymous   Login
Location: Mentone
(34.5413°N, 85.5351°W)
Time: 10:32:47
(UTC-05:00)
Language:

A-11 Canister half - Orbit

View from above orbital plane
View from above orbital plane
View from above satellite
View from above satellite

Ground track
Ground track

The orbit data is extracted from the following two-line orbital elements,

1 00053U 60009E   15115.57995827 -.00000084  00000-0  00000+0 0  9990
2 00053 047.2768 295.8181 0097015 286.5286 072.4863 12.17163939439599
Epoch (UTC): 25 April 2015 13:55:08
Eccentricity: 0.0097015
inclination: 47.2768°
perigee height: 1527 km
apogee height: 1682 km
right ascension of ascending node: 295.8181°
argument of perigee: 286.5286°
revolutions per day: 12.17163939
mean anomaly at epoch: 72.4863°
orbit number at epoch: 43959

The dashed part of the orbit path shows where the satellite is in the earth's shadow,  

DLR